Terminal Aerodrome Forecast
Issued by NWS Bismarck, ND

Home | Current Version | Previous Version | Graphics & Text | Print | Product List | Glossary On
Versions: 1 2 3 4 5 6 7 8 9 10 11 12 13 14 15 16 17 18 19 20
000
FTUS43 KBIS 191630 AAC
TAFBIS
TAF AMD
KBIS 191630Z 1917/2012 17008KT P6SM SCT020 BKN050
     FM192100 09008KT P6SM SCT040 BKN070
     FM200300 09005KT P6SM SKC=

USA.gov is the U.S. government's official web portal to all federal, state and local government web resources and services.